Погода в Камышине

Хотите узнать прогноз погоды в Камышине? Тогда Вам сюда: Погода в Камышине

Поиск расширенной информации на нашем сайте:

Полезная информация:

Новости сайта



02.01.2020
Опубликован Долгосрочный прогноз погоды по городам России и ближнего зарубежья на январь 2020 года.
Карты: Прогноз на январь и февраль 2020 года, Сравнение прогнозируемой аномалии приземной температуры воздуха на январь 2020 года по разным моделям.




Погода в Камышине - сегодня

Время (UTC), дата Ветер
(°,м/с) 
Видим.   Явления Облачность Т
(°С)
Тd
(°С)
f(%) Тe
(°С)
Pmin
(гПа)
dP
(гПа)
Po
(мм)
O2
(г/м3)
Тmin Tmax R s Состояние
почвы
12 16.04.21 310 (СЗ) 10 км    8/3 1500 м средняя, верхняя 
[Cu hum|Ac trans|Ci fib]
+23.1 -0.9 20 +23  1015.8  -0.2  751  279           
15 16.04.21 060 (СВ) 10 км    1/0 средняя 
[Ac lent]
+20.4 -1.8 22 +20  1016.1  0.2  751  282    +23.5       
18 16.04.21 310 (СЗ) 10 км    6/0 средняя 
[Ac trans]
+15.9 +4 45 +16  1017.4  1.1  752  286           
21 16.04.21 310 (СЗ) 20000 м    3/0 средняя 
[Ac trans]
+13.8 +3.1 48 +13  1017.4  -0.2  752  288           
00 17.04.21 320 (СЗ) 20000 м    ясно 
+12.2 +3 53 +12  1017.2  -0.2  752  290           
03 17.04.21 340 (С) 10 км    6/0 средняя 
[Ac trans]
+11.4 +3.3 57 +12  1017.5  0.3  752  290  +8.9        сухая 
06 17.04.21 220 (ЮЗ) 10 км    9/0 средняя, верхняя 
[Ac trans|Ci fib]
+16.4 +3 41 +16  1018  0.7  753  286           
09 17.04.21 260 (З) 8-14{14}  10 км    10/3 1000 м кучево-дожд., средняя, верхняя 
[Cb calv|Ac trans|Cs]
+17.6 +3.9 40 +17  1018.4  0.5  753  284           
12 17.04.21 250 (З) 9-13{15}  10 км  осадки на расстоянии  10/8 600 м кучево-дожд., средняя 
[Cb calv|Ac As]
+12.3 +7.6 73 +11  1019.4  0.7  753  289           
15 17.04.21 260 (З) 3{13}  10 км  в посл. час ливневой дождь  8/5 600 м кучево-дожд., средняя 
[Cb calv|Ac trans]
+12.3 +8.2 76 +12  1019.1  -0.2  753  289    +18     
18 17.04.21 270 (З) 10 км  в посл. час ливневой дождь  3/3 600 м кучево-дожд. 
[Cb calv]
+9 +6.1 82 +7  1019.6  0.3  753  293           
21 17.04.21 310 (СЗ) 4{11}  10 км    ясно 
+7.3 +5.2 86 +6  1019.8  -0.1  754  295           
00 18.04.21 310 (СЗ) 4000 м  дымка  3/3 200 м 
[St]
+6 +4.3 89 +4  1020.3  0.4  754  297           
03 18.04.21 310 (СЗ) 4000 м  дымка  6/0 верхняя 
[Ci fib]
+6.4 +4.1 85 +5  1019.8  -0.5  753  296  +4.9    0.3    влажная 
06 18.04.21 300 (СЗ) 10 км    5/0 верхняя 
[Ci sp]
+12.4 +3.7 55 +11  1019.1  -0.3  753  290           
09 18.04.21 290 (З) 10 км    9/3 1000 м верхняя 
[Sc|Ci sp]
+15.4 +0.1 35 +15  1018.6  -0.4  753  287           
12 18.04.21 290 (З) 10 км    10/3 1000 м верхняя 
[Sc|Cs]
+16.8 +1.1 35 +17  1018  -0.5  753  285           
15 18.04.21 320 (СЗ) 20000 м    10/3 1000 м верхняя 
[Sc|Cs]
+15.2 +1.1 38 +15  1017.8  -0.3  752  287    +17       
18 18.04.21 310 (СЗ) 20000 м    8/0 средняя, верхняя 
[Ac trans|Ci sp]
+12.3 +2.5 51 +12  1017.4  -0.6  752  290           
21 18.04.21 310 (СЗ) 20000 м    9/0 средняя 
[Ac und]
+11.3 +3 57 +10  1017  -0.4  752  290           
00 19.04.21 310 (СЗ) 20000 м    10/0 средняя 
[Ac und]
+11.1 +2.6 56 +10  1015.9  -1  751  290           
03 19.04.21 320 (СЗ) 10 км    10/3 600 м средняя 
[Sc|Ac und]
+9.9 +3.2 63 +11  1015.6  -0.4  751  291  +9.5        сухая 
06 19.04.21 170 (Ю) 10 км  слаб. ливневой дождь  10/4 600 м кучево-дожд., средняя 
[Cb calv|Ac und]
+11.4 +2.8 55 +13  1016.1  0.5  751  290           
09 19.04.21 100 (В) 10 км  слаб. ливневой дождь  10/5 600 м кучево-дожд., средняя 
[Cb calv|Ac lent]
+9.7 +4.9 72 +11  1016.2  751  291           
12 19.04.21 050 (СВ) 10 км  {ливн. осадки}  10/4 600 м средняя 
[Sc|Ac lent]
+10 +5.2 72 +10  1015.7  -0.5  751  291           
Время (UTC), дата Ветер
(°,м/с) 
Видим.   Явления Облачность Т
(°С)
Тd
(°С)
f(%) Тe
(°С)
Pmin
(гПа)
dP
(гПа)
Po
(мм)
O2
(г/м3)
Тmin Tmax R s Состояние
почвы

Для получения пояснительной информации подведите курсор к названию столбца.

ПОГОДА в Камышине - архив

Всё, что Вы хотите узнать о погоде в Камышине - удобно и подробно!

Выберите нужную дату (начиная с 1 января 2019* года) и нажмите кнопку "Найти".
Будут отображены архивные сводки погоды по пункту Камышин, начиная с указанной даты.


Отображать данные в формате CSV (для использования в таблицах Excel)


Внимание! Наш архив погоды предназначен исключительно для личного некоммерческого использования в познавательных целях. Если Вам необходимы официальные справки о состоянии погоды (для производственных, юридических, коммерческих и т.п. целей), обращайтесь в органы Росгидромета.

*Примечание: данная дата относится к архиву по метеостанциям СССР (Россия, СНГ, Балтия).
Архив по метеостанциям Зарубежной Европы и Азии (кроме Китая) хранится 10 дней, по другим регионам земного шара (Китай, Африка, Америка, Австралия, Океания) - 1 день.

Камышин - район местоположения метеостанции


Название, широта, долгота, высота метеостанции:
Камышин 50.1°ш. 45.4°д. 119 м над ур. моря [Российская Федерация]

Дополнительная информация

В oтличие oт бoльшинства пoгoдных сайтoв мы публикуем пoдрoбную метеoинфoрмацию в детальнoм прoфессиoнальнoм фoрмате.

Характеристики температуры и влажнoсти вoздуха измеряются на высoте 2 м в тени вдали oт зданий и деревьев.
Скoрoсть ветра измеряется на высoте 10 м (на урoвне рoста челoвека скoрoсть ветра ниже в 1.5-2 раза). Если метеoстанция нахoдится в гoрoде или в лесу, тo скoрoсть ветра занижена на 2-4 м/с пo сравнению с oткрытым местoм. Скoрoсть ветра над акватoриями крупных рек и oзёр, а также на вершинах хoлмoв на 2-5 м/с выше, чем в oбычных услoвиях.
Атмoсфернoе давление в разных тoчках местнoсти мoжет значительнo oтличаться oт давления на метеoстанции, в зависимoсти oт услoвий рельефа (при пoдъёме на 10 м давление пoнижается примернo на 1 мм рт.ст.).